(°C)
-7°
-7°
-7°
-6°
-6°
-5°
-4°
(°C)
-12°
-11°
-11°
-11°
-10°
-10°
-9°
WSW
WSW
SW
SSW
S
S
SSW
(km/h)
11-19
10-16
8-14
7-14
9-15
11-17
12-18
(mm)
0
0
0
0
0
1.2
0
(%)
0
0
7
6
25
38
19

Elevazione del sole

/ -52°
sun-icon
UV 0
08:37
16:04
(3°)
08:50
15:49

METAR per 55.6°N 37.27°E (UUWW)

Ora Condizioni Temperatura/
Punto di rugiada
Vento Visibilità Tempo Nuvole Pressione Cambiamento Grezzo
MVFR -6°C / -9°C 210º 6kt >10km - Broken Clouds 2700ft 1009 No Significant change. Runway 24: Wet snow, 11-25% contamination with 2mm, friction coefficient 0.45. UUWW 041930Z 21003MPS 9999 BKN027 M06/M09 Q1009 R24/520245 NOSIG
MVFR -7°C / -9°C 230º 6kt >10km - Broken Clouds 3000ft 1009 No Significant change. Runway 24: Wet snow, 11-25% contamination with 2mm, friction coefficient 0.45. UUWW 041900Z 23003MPS 9999 BKN030 M07/M09 Q1009 R24/520245 NOSIG
VFR -7°C / °C 230º 6kt >10km - Few Clouds 2700ft 1009 No Significant change. Runway 24: Wet snow, 11-25% contamination with 2mm, friction coefficient 0.45. UUWW 041830Z 23003MPS 9999 FEW027 M07/M10 Q1009 R24/520245 NOSIG
VFR -7°C / °C 240º 6kt >10km - Few Clouds 2700ft 1008 No Significant change. Runway 24: Wet snow, 11-25% contamination with 2mm, friction coefficient 0.45. UUWW 041800Z 24003MPS 9999 FEW027 M07/M10 Q1008 R24/520245 NOSIG
VFR -8°C / °C 240º 8kt >10km - Clouds and Visibility OK 1008 No Significant change. Runway 24: Wet snow, 11-25% contamination with 2mm, friction coefficient 0.45. UUWW 041730Z 24004MPS CAVOK M08/M11 Q1008 R24/520245 NOSIG
VFR -7°C / °C 240º 8kt >10km - Clouds and Visibility OK 1008 No Significant change. Runway 24: Wet snow, 11-25% contamination with 2mm, friction coefficient 0.45. UUWW 041700Z 24004MPS CAVOK M07/M10 Q1008 R24/520245 NOSIG
VFR -8°C / °C 240º 8kt >10km - Clouds and Visibility OK 1008 No Significant change. Runway 24: Wet snow, 11-25% contamination with 2mm, friction coefficient 0.45. UUWW 041630Z 24004MPS CAVOK M08/M11 Q1008 R24/520245 NOSIG
VFR -7°C / °C 250º 4kt >10km - Few Clouds 3600ft 1008 No Significant change. Runway 19: Dry snow, 11-25% contamination with 2mm, friction coefficient 0.42. UUWW 041600Z 25002MPS 9999 FEW036 M07/M10 Q1008 R19/420242 NOSIG
VFR -6°C / °C 240º 8kt >10km - Broken Clouds 3300ft 1007 No Significant change. Runway 24: Wet snow, 1-10% contamination with 2mm, friction coefficient 0.45. UUWW 041530Z 24004MPS 9999 BKN033 M06/M10 Q1007 R24/510245 NOSIG
MVFR -6°C / °C 260º 12kt >10km - Broken Clouds 2600ft 1007 No Significant change. Runway 24: Wet snow, 1-10% contamination with 2mm, friction coefficient 0.45. UUWW 041500Z 26006MPS 9999 BKN026 M06/M10 Q1007 R24/510245 NOSIG
MVFR -5°C / -9°C 260º 14kt >10km - Broken Clouds 2900ft 1007 No Significant change. Runway 24: Wet snow, 1-10% contamination with 2mm, friction coefficient 0.45. UUWW 041430Z 26007MPS 9999 BKN029 M05/M09 Q1007 R24/510245 NOSIG
MVFR -4°C / -8°C 270º 12kt >10km - Broken Clouds 2800ft 1006 No Significant change. Runway 24: Wet snow, 1-10% contamination with 2mm, friction coefficient 0.45. UUWW 041400Z 27006MPS 9999 BKN028 M04/M08 Q1006 R24/510245 NOSIG
MVFR -4°C / -8°C 270º 12kt >10km - Broken Clouds 2800ft 1006 No Significant change. Runway 24: Wet snow, 1-10% contamination with 2mm, friction coefficient 0.45. UUWW 041330Z 27006MPS 9999 BKN028 M04/M08 Q1006 R24/510245 NOSIG
MVFR -4°C / -8°C 270º 12kt >10km Light Snow 1.00mm precipitation Vertical Visibility of 0ft. 1005 No Significant change. Runway 24: Wet snow, 1-10% contamination with 2mm, friction coefficient 0.45. UUWW 041300Z 27006MPS 9999 -SN BKN026 M04/M08 Q1005 R24/510245 NOSIG
MVFR -4°C / -7°C 270º 8kt >10km Light Snow 1.00mm precipitation Vertical Visibility of 0ft. 1005 No Significant change. Runway 19: Dry snow, 11-25% contamination with 2mm, friction coefficient 0.45. UUWW 041230Z 27004MPS 9999 -SN BKN028 M04/M07 Q1005 R19/420245 NOSIG
MVFR -3°C / -7°C 270º 6kt >10km Light Snow 1.00mm precipitation Vertical Visibility of 0ft. 1005 No Significant change. Runway 19: Dry snow, 11-25% contamination with 2mm, friction coefficient 0.45. UUWW 041200Z 27003MPS 9999 -SN BKN019 M03/M07 Q1005 R19/420245 NOSIG
MVFR -3°C / -7°C 270º 10kt >10km Light Showers Snow 3.00mm precipitation Vertical Visibility of 0ft. 1005 No Significant change. Runway 19: Dry snow, 11-25% contamination with 2mm, friction coefficient 0.45. UUWW 041130Z 27005MPS 9999 -SHSN BKN019CB M03/M07 Q1005 R19/420245 NOSIG
MVFR -3°C / -7°C 260º 10kt >10km Light Snow 1.00mm precipitation Vertical Visibility of 0ft. 1004 No Significant change. Runway 19: Dry snow, 11-25% contamination with 2mm, friction coefficient 0.45. UUWW 041100Z 26005MPS 9999 -SN BKN023 M03/M07 Q1004 R19/420245 NOSIG
MVFR -3°C / -7°C 260º 12kt >10km Light Snow 1.00mm precipitation Vertical Visibility of 0ft. 1004 No Significant change. Runway 19: Dry snow, 11-25% contamination with 2mm, friction coefficient 0.45. UUWW 041030Z 26006MPS 9999 -SN BKN026 M03/M07 Q1004 R19/420245 NOSIG
MVFR -3°C / -7°C 260º 10kt >10km Light Snow 1.00mm precipitation Vertical Visibility of 0ft. 1003 Temporary: Visibility 1100. Showers Snow . Broken Clouds 1600ft. Cumulonimbus . Runway 19: Dry snow, 11-25% contamination with 2mm, friction coefficient 0.45. UUWW 041000Z 26005MPS 9999 -SN BKN030 M03/M07 Q1003 R19/420245 TEMPO 1100 SHSN BKN016CB
VFR -3°C / -8°C 270º 14kt Gust 23kt >10km - Broken Clouds 3600ft 1003 Temporary: Visibility 1100. Showers Snow . Broken Clouds 1600ft. Cumulonimbus . Runway 24: Wet snow, 51-100% contamination with 2mm, friction coefficient 0.35. UUWW 040930Z 27007G12MPS 9999 BKN036 M03/M08 Q1003 R24/590235 TEMPO 1100 SHSN BKN016CB
VFR -3°C / -8°C 270º 16kt >10km - Broken Clouds 3600ft 1003 Temporary: Visibility 1100. Showers Snow . Broken Clouds 1600ft. Cumulonimbus . Runway 24: Wet snow, 51-100% contamination with 2mm, friction coefficient 0.35. UUWW 040900Z 27008MPS 9999 BKN036 M03/M08 Q1003 R24/590235 TEMPO 1100 SHSN BKN016CB
VFR -4°C / -8°C 260º 17kt >10km - Broken Clouds 3600ft 1003 Temporary: Visibility 1100. Showers Snow . Broken Clouds 1600ft. Cumulonimbus . Runway 24: Wet snow, 51-100% contamination with 2mm, friction coefficient 0.35. UUWW 040830Z 26009MPS 9999 BKN036 M04/M08 Q1003 R24/590235 TEMPO 1100 SHSN BKN016CB
MVFR -3°C / -8°C 270º 19kt >10km - Broken Clouds 2900ft 1002 Temporary: Visibility 1100. Showers Snow . Broken Clouds 1600ft. Cumulonimbus . Runway 24: Wet snow, 51-100% contamination with 2mm, friction coefficient 0.35. UUWW 040800Z 27010MPS 9999 BKN029CB M03/M08 Q1002 R24/590235 TEMPO 1100 SHSN BKN016CB

MVFR

-6°C / -9°C

[Più]
Vento 210º 6kt
Visibilità >10km
Tempo -
Nuvole Broken Clouds 2700ft
Pressione 1009
Cambiamento No Significant change. Runway 24: Wet snow, 11-25% contamination with 2mm, friction coefficient 0.45.
Grezzo UUWW 041930Z 21003MPS 9999 BKN027 M06/M09 Q1009 R24/520245 NOSIG

MVFR

-7°C / -9°C

[Più]
Vento 230º 6kt
Visibilità >10km
Tempo -
Nuvole Broken Clouds 3000ft
Pressione 1009
Cambiamento No Significant change. Runway 24: Wet snow, 11-25% contamination with 2mm, friction coefficient 0.45.
Grezzo UUWW 041900Z 23003MPS 9999 BKN030 M07/M09 Q1009 R24/520245 NOSIG

VFR

-7°C / °C

[Più]
Vento 230º 6kt
Visibilità >10km
Tempo -
Nuvole Few Clouds 2700ft
Pressione 1009
Cambiamento No Significant change. Runway 24: Wet snow, 11-25% contamination with 2mm, friction coefficient 0.45.
Grezzo UUWW 041830Z 23003MPS 9999 FEW027 M07/M10 Q1009 R24/520245 NOSIG

VFR

-7°C / °C

[Più]
Vento 240º 6kt
Visibilità >10km
Tempo -
Nuvole Few Clouds 2700ft
Pressione 1008
Cambiamento No Significant change. Runway 24: Wet snow, 11-25% contamination with 2mm, friction coefficient 0.45.
Grezzo UUWW 041800Z 24003MPS 9999 FEW027 M07/M10 Q1008 R24/520245 NOSIG

VFR

-8°C / °C

[Più]
Vento 240º 8kt
Visibilità >10km
Tempo -
Nuvole Clouds and Visibility OK
Pressione 1008
Cambiamento No Significant change. Runway 24: Wet snow, 11-25% contamination with 2mm, friction coefficient 0.45.
Grezzo UUWW 041730Z 24004MPS CAVOK M08/M11 Q1008 R24/520245 NOSIG

VFR

-7°C / °C

[Più]
Vento 240º 8kt
Visibilità >10km
Tempo -
Nuvole Clouds and Visibility OK
Pressione 1008
Cambiamento No Significant change. Runway 24: Wet snow, 11-25% contamination with 2mm, friction coefficient 0.45.
Grezzo UUWW 041700Z 24004MPS CAVOK M07/M10 Q1008 R24/520245 NOSIG

VFR

-8°C / °C

[Più]
Vento 240º 8kt
Visibilità >10km
Tempo -
Nuvole Clouds and Visibility OK
Pressione 1008
Cambiamento No Significant change. Runway 24: Wet snow, 11-25% contamination with 2mm, friction coefficient 0.45.
Grezzo UUWW 041630Z 24004MPS CAVOK M08/M11 Q1008 R24/520245 NOSIG

VFR

-7°C / °C

[Più]
Vento 250º 4kt
Visibilità >10km
Tempo -
Nuvole Few Clouds 3600ft
Pressione 1008
Cambiamento No Significant change. Runway 19: Dry snow, 11-25% contamination with 2mm, friction coefficient 0.42.
Grezzo UUWW 041600Z 25002MPS 9999 FEW036 M07/M10 Q1008 R19/420242 NOSIG

VFR

-6°C / °C

[Più]
Vento 240º 8kt
Visibilità >10km
Tempo -
Nuvole Broken Clouds 3300ft
Pressione 1007
Cambiamento No Significant change. Runway 24: Wet snow, 1-10% contamination with 2mm, friction coefficient 0.45.
Grezzo UUWW 041530Z 24004MPS 9999 BKN033 M06/M10 Q1007 R24/510245 NOSIG

MVFR

-6°C / °C

[Più]
Vento 260º 12kt
Visibilità >10km
Tempo -
Nuvole Broken Clouds 2600ft
Pressione 1007
Cambiamento No Significant change. Runway 24: Wet snow, 1-10% contamination with 2mm, friction coefficient 0.45.
Grezzo UUWW 041500Z 26006MPS 9999 BKN026 M06/M10 Q1007 R24/510245 NOSIG

MVFR

-5°C / -9°C

[Più]
Vento 260º 14kt
Visibilità >10km
Tempo -
Nuvole Broken Clouds 2900ft
Pressione 1007
Cambiamento No Significant change. Runway 24: Wet snow, 1-10% contamination with 2mm, friction coefficient 0.45.
Grezzo UUWW 041430Z 26007MPS 9999 BKN029 M05/M09 Q1007 R24/510245 NOSIG

MVFR

-4°C / -8°C

[Più]
Vento 270º 12kt
Visibilità >10km
Tempo -
Nuvole Broken Clouds 2800ft
Pressione 1006
Cambiamento No Significant change. Runway 24: Wet snow, 1-10% contamination with 2mm, friction coefficient 0.45.
Grezzo UUWW 041400Z 27006MPS 9999 BKN028 M04/M08 Q1006 R24/510245 NOSIG

MVFR

-4°C / -8°C

[Più]
Vento 270º 12kt
Visibilità >10km
Tempo -
Nuvole Broken Clouds 2800ft
Pressione 1006
Cambiamento No Significant change. Runway 24: Wet snow, 1-10% contamination with 2mm, friction coefficient 0.45.
Grezzo UUWW 041330Z 27006MPS 9999 BKN028 M04/M08 Q1006 R24/510245 NOSIG

MVFR

-4°C / -8°C

[Più]
Vento 270º 12kt
Visibilità >10km
Tempo Light Snow 1.00mm precipitation
Nuvole Vertical Visibility of 0ft.
Pressione 1005
Cambiamento No Significant change. Runway 24: Wet snow, 1-10% contamination with 2mm, friction coefficient 0.45.
Grezzo UUWW 041300Z 27006MPS 9999 -SN BKN026 M04/M08 Q1005 R24/510245 NOSIG

MVFR

-4°C / -7°C

[Più]
Vento 270º 8kt
Visibilità >10km
Tempo Light Snow 1.00mm precipitation
Nuvole Vertical Visibility of 0ft.
Pressione 1005
Cambiamento No Significant change. Runway 19: Dry snow, 11-25% contamination with 2mm, friction coefficient 0.45.
Grezzo UUWW 041230Z 27004MPS 9999 -SN BKN028 M04/M07 Q1005 R19/420245 NOSIG

MVFR

-3°C / -7°C

[Più]
Vento 270º 6kt
Visibilità >10km
Tempo Light Snow 1.00mm precipitation
Nuvole Vertical Visibility of 0ft.
Pressione 1005
Cambiamento No Significant change. Runway 19: Dry snow, 11-25% contamination with 2mm, friction coefficient 0.45.
Grezzo UUWW 041200Z 27003MPS 9999 -SN BKN019 M03/M07 Q1005 R19/420245 NOSIG

MVFR

-3°C / -7°C

[Più]
Vento 270º 10kt
Visibilità >10km
Tempo Light Showers Snow 3.00mm precipitation
Nuvole Vertical Visibility of 0ft.
Pressione 1005
Cambiamento No Significant change. Runway 19: Dry snow, 11-25% contamination with 2mm, friction coefficient 0.45.
Grezzo UUWW 041130Z 27005MPS 9999 -SHSN BKN019CB M03/M07 Q1005 R19/420245 NOSIG

MVFR

-3°C / -7°C

[Più]
Vento 260º 10kt
Visibilità >10km
Tempo Light Snow 1.00mm precipitation
Nuvole Vertical Visibility of 0ft.
Pressione 1004
Cambiamento No Significant change. Runway 19: Dry snow, 11-25% contamination with 2mm, friction coefficient 0.45.
Grezzo UUWW 041100Z 26005MPS 9999 -SN BKN023 M03/M07 Q1004 R19/420245 NOSIG

MVFR

-3°C / -7°C

[Più]
Vento 260º 12kt
Visibilità >10km
Tempo Light Snow 1.00mm precipitation
Nuvole Vertical Visibility of 0ft.
Pressione 1004
Cambiamento No Significant change. Runway 19: Dry snow, 11-25% contamination with 2mm, friction coefficient 0.45.
Grezzo UUWW 041030Z 26006MPS 9999 -SN BKN026 M03/M07 Q1004 R19/420245 NOSIG

MVFR

-3°C / -7°C

[Più]
Vento 260º 10kt
Visibilità >10km
Tempo Light Snow 1.00mm precipitation
Nuvole Vertical Visibility of 0ft.
Pressione 1003
Cambiamento Temporary: Visibility 1100. Showers Snow . Broken Clouds 1600ft. Cumulonimbus . Runway 19: Dry snow, 11-25% contamination with 2mm, friction coefficient 0.45.
Grezzo UUWW 041000Z 26005MPS 9999 -SN BKN030 M03/M07 Q1003 R19/420245 TEMPO 1100 SHSN BKN016CB

VFR

-3°C / -8°C

[Più]
Vento 270º 14kt Gust 23kt
Visibilità >10km
Tempo -
Nuvole Broken Clouds 3600ft
Pressione 1003
Cambiamento Temporary: Visibility 1100. Showers Snow . Broken Clouds 1600ft. Cumulonimbus . Runway 24: Wet snow, 51-100% contamination with 2mm, friction coefficient 0.35.
Grezzo UUWW 040930Z 27007G12MPS 9999 BKN036 M03/M08 Q1003 R24/590235 TEMPO 1100 SHSN BKN016CB

VFR

-3°C / -8°C

[Più]
Vento 270º 16kt
Visibilità >10km
Tempo -
Nuvole Broken Clouds 3600ft
Pressione 1003
Cambiamento Temporary: Visibility 1100. Showers Snow . Broken Clouds 1600ft. Cumulonimbus . Runway 24: Wet snow, 51-100% contamination with 2mm, friction coefficient 0.35.
Grezzo UUWW 040900Z 27008MPS 9999 BKN036 M03/M08 Q1003 R24/590235 TEMPO 1100 SHSN BKN016CB

VFR

-4°C / -8°C

[Più]
Vento 260º 17kt
Visibilità >10km
Tempo -
Nuvole Broken Clouds 3600ft
Pressione 1003
Cambiamento Temporary: Visibility 1100. Showers Snow . Broken Clouds 1600ft. Cumulonimbus . Runway 24: Wet snow, 51-100% contamination with 2mm, friction coefficient 0.35.
Grezzo UUWW 040830Z 26009MPS 9999 BKN036 M04/M08 Q1003 R24/590235 TEMPO 1100 SHSN BKN016CB

MVFR

-3°C / -8°C

[Più]
Vento 270º 19kt
Visibilità >10km
Tempo -
Nuvole Broken Clouds 2900ft
Pressione 1002
Cambiamento Temporary: Visibility 1100. Showers Snow . Broken Clouds 1600ft. Cumulonimbus . Runway 24: Wet snow, 51-100% contamination with 2mm, friction coefficient 0.35.
Grezzo UUWW 040800Z 27010MPS 9999 BKN029CB M03/M08 Q1002 R24/590235 TEMPO 1100 SHSN BKN016CB

TAF per 55.6°N 37.27°E (UUWW)

From till


Maximum Temperature -2ºC on . Minimum Temperature -6ºC on .
From till Wind 250º 10kt. Gust 21kt. Visibility 6000m. Few Clouds 700ft. Broken Clouds 1600ft.
Becoming from till Wind 190º 6kt. Gust 16kt. Visibility 6000m. Overcast 800ft.
Temporarly from till Visibility 1100m. Showers Snow Mist . Broken Clouds 400ft. Broken Clouds 1600ft.
Temporarly from till Visibility 2100m. Light Showers Snow . Broken Clouds 400ft. Broken Clouds 1600ft.

Grezzo: TAF UUWW 041659Z 0418/0518 25005G11MPS 6000 FEW007 BKN016 TXM02/0512Z TNM06/0421Z BECMG 0420/0421 19003G08MPS OVC008 TEMPO 0421/0512 1100 SHSN BR BKN004 BKN016CB TEMPO 0512/0518 2100 -SHSN BKN004 BKN016CB

Radar e nowcasting per 55.6°N 37.27°E

Pioviggine
Lieve
Moderato
Forte
Molto forte
Grandine

Il segnaposto è situato a 55.6°N 37.27°E. Questa animazione mostra il radar delle precipitazioni per l'ultima ora, nonché una previsione 1h. Una pioviggine o una leggera caduta di neve potrebbero essere invisibili per il radar. L'intensità delle precipitazioni è codificata a colori, dal blu chiaro all'arancione.

Tempo in atto per 55.6°N 37.27°E: immagine satellitare e pioggia

Il segnaposto è situato a 55.6°N 37.27°E. [Più]

L'immagine satellitare in tempo reale combina la luce visibile durante il giorno con la radiazione infrarossa durante la notte. Di notte l'immagine non è scura poiché i raggi infrarossi possono rilevare differenze di temperatura. Purtroppo, le nuvole basse e la nebbia sono difficili da distinguere dalla temperatura del suolo e possono pertanto essere quasi invisibili durante la notte. Le immagini satellitari Meteosat per l'Europa vengono aggiornate in tempo reale ogni 5 minuti. Le immagini GOES-16 / GOES-17 (Nord e Sud America) e Himawari (Asia) vengono aggiornate ogni 10 minuti.

Copyright 2021 EUMETSAT / meteoblue. / Copyright 2021 meteoblue